Вернуться в каталог

THOR ABLESTAR DEB

АктивенLEO
NORAD 48820·DEBRIS·🇺🇸 United States

Запущен Jun 29, 1961 с Cape Canaveral Space Force Station

Loading…

Ближайшие Пролёты (ближайшие 24 часа)

TLE

СвежийSource: Space-Track

Эпоха: Sep 14, 2026, 12:41 UTC

1 48820U 61015MY  26257.52873550  .00000326  00000-0  43905-3 0  9997
2 48820  65.8477  83.6187 0126491 119.1739 242.2046 13.69549313640798

Отслеживайте THOR ABLESTAR DEB в реальном времени с AllMySat

Download on the App Store